Flag for Albania Weather past 2 weeks in Tirana, Albania

Now
57 °F

Scattered clouds.


Feels Like: 57 °F
Forecast: 50 / 71 °F
Wind: 2 mph from North

Location: Tirana Airport

Current Time: May 23, 2015 at 7:00:09 AM

Latest Report: May 23, 2015 at 6:20 AM


Visibility: N/A

Pressure: 29.89 "Hg

Humidity: 88%

Dew point: 54 °F

Location of TiranaLocation

Historic Weather in Tirana — Graph

°F

Tirana temperature yesterday

Maximum temperature yesterday: 81 °F (at 11:20 AM)
Minimum temperature yesterday: 61 °F (at 1:50 AM)
Average temperature yesterday: 70 °F

Past Weeks' High & Low Weather Summary

 TemperatureHumidityPressure
High88 °F (May 8, 12:20 PM)94% (May 8, 6:20 AM)30.21 "Hg (May 8, 6:20 AM)
Low48 °F (May 12, 4:50 AM)23% (May 11, 9:50 AM)29.77 "Hg (May 22, 10:20 AM)
Average69 °F59%29.96 "Hg
* Reported May 8 5:20 AM — May 23 5:20 AM, Tirana, Weather by CustomWeather, © 2015

Note: Actual official high and low records may vary slightly from our data, if they occured in-between our weather recording intervals... More about our weather records

Advertising

Tirana weather history for previous 24 hours

 ConditionsComfort  
Time TempWeatherWind HumidityBarometerVisibility
5:20 AM
Sat, May 23
57 °FMostly cloudy.3 mph88%29.89 "HgN/A
4:50 AM57 °FPartly cloudy.3 mph88%29.89 "HgN/A
4:20 AM57 °FPassing clouds.6 mph88%29.89 "HgN/A
3:50 AM55 °FPassing clouds.7 mph94%29.89 "HgN/A
3:20 AM57 °FPassing clouds.5 mph88%29.89 "HgN/A
2:50 AM57 °FLight rain. Mostly cloudy.2 mph88%29.89 "HgN/A
2:20 AM55 °FHeavy rain. Mostly cloudy.5 mph94%29.89 "Hg4 mi
1:50 AM57 °FLight rain. Mostly cloudy.7 mph82%29.89 "HgN/A
1:20 AM61 °FMostly cloudy.8 mph63%29.89 "HgN/A
12:50 AM64 °FMostly cloudy.8 mph52%29.89 "HgN/A
12:20 AM66 °FMostly cloudy.6 mph73%29.86 "HgN/A
11:50 PM
Fri, May 22
66 °FMostly cloudy.7 mph78%29.86 "HgN/A
11:20 PM66 °FMostly cloudy.7 mph78%29.86 "HgN/A
10:50 PM68 °FMostly cloudy.5 mph73%29.83 "HgN/A
10:20 PM68 °FMostly cloudy.3 mph73%29.83 "HgN/A
9:50 PM68 °FMostly cloudy.3 mph73%29.83 "HgN/A
9:20 PM68 °FMostly cloudy.2 mph73%29.83 "HgN/A
8:50 PM68 °FMostly cloudy.5 mph73%29.83 "HgN/A
8:20 PM68 °FMostly cloudy.8 mph69%29.80 "HgN/A
7:50 PM72 °FMostly cloudy.8 mph57%29.80 "HgN/A
7:20 PM73 °FMostly cloudy.3 mph53%29.80 "HgN/A
6:50 PM73 °FPartly sunny.7 mph53%29.77 "HgN/A
6:20 PM73 °FPartly sunny.7 mph53%29.77 "HgN/A
5:50 PM73 °FBroken clouds.7 mph53%29.77 "HgN/A
5:20 PM75 °FScattered clouds.7 mph54%29.77 "HgN/A
4:50 PM75 °FScattered clouds.8 mph54%29.77 "HgN/A
4:20 PM77 °FScattered clouds.5 mph47%29.77 "HgN/A
3:50 PM77 °FPassing clouds.6 mph51%29.80 "HgN/A
3:20 PM75 °FScattered clouds.8 mph54%29.80 "HgN/A
2:50 PM73 °FBroken clouds.9 mph50%29.80 "HgN/A
2:20 PM75 °FLight rain. Broken clouds.3 mph50%29.80 "HgN/A
1:50 PM77 °FBroken clouds.6 mph47%29.80 "HgN/A
1:20 PM77 °FBroken clouds.8 mph47%29.80 "HgN/A
12:50 PM77 °FBroken clouds.14 mph47%29.80 "HgN/A
12:20 PM75 °FBroken clouds.20 mph47%29.77 "HgN/A
11:50 AM79 °FBroken clouds.12 mph37%29.77 "HgN/A
11:20 AM81 °FBroken clouds.13 mph37%29.77 "HgN/A
10:50 AM79 °FBroken clouds.15 mph34%29.77 "HgN/A
10:20 AM77 °FBroken clouds.9 mph42%29.77 "HgN/A
9:50 AM77 °FBroken clouds.8 mph42%29.80 "HgN/A
9:20 AM75 °FMore clouds than sun.8 mph47%29.80 "HgN/A
8:50 AM70 °FLight rain. More clouds than sun.12 mph60%29.80 "HgN/A
8:20 AM70 °FLight rain. More clouds than sun.3 mph64%29.86 "HgN/A
7:50 AM72 °FBroken clouds.5 mph57%29.83 "HgN/A
7:20 AM70 °FBroken clouds.9 mph60%29.80 "HgN/A
Weather by CustomWeather, © 2015

See weather overviewHow to use our weather pages